Location: Bassano
(45.7667°N, 11.7333°E)
Time: 18:06:53
(UTC+00:00)

Cosmos 1980 Rocket - Pass Details

Date: 07 June 2020
Orbit: 828 x 851 km, 71.0° (Epoch: 02 July)

Event Time Altitude Azimuth Distance (km) Brightness Sun altitude
Exits shadow 00:51:57 24° 238° (WSW) 1,650 3.2 -17.8°
Maximum altitude 00:55:04 50° 302° (WNW) 1,059 2.7 -17.6°
Drops below altitude 10° 01:00:35 10° 18° (NNE) 2,471 5.9 -17.1°
Sets 01:03:07 0° 23° (NNE) 3,414 7.2 -17.0°
